Location: McFarlands Corners
(41.4117°N, 81.3382°W)
Time: 00:37:16
(UTC+00:00)

Tiros 1 - Pass Details

Date: 19 February 2026
Orbit: 618 x 649 km, 48.4° (Epoch: 10 March)

Event Time Altitude Azimuth Distance (km) Brightness Sun altitude
Rises 15:13:39 0° 270° (W) 2,908 10.2 27.7°
Reaches altitude 10° 15:16:06 10° 279° (W) 1,997 9.3 28.0°
Maximum altitude 15:20:24 39° 348° (NNW) 942 7.9 28.5°
Drops below altitude 10° 15:24:41 10° 58° (ENE) 1,986 9.8 29.0°
Sets 15:27:07 0° 66° (ENE) 2,890 10.7 29.3°
